[[{"header":{"parameterUnit":"m.s-1","parameterCategory":1,"la1":30.2991,"la2":30.254,"lo1":-89.0895,"lo2":-89.0444,"dy":0.0017,"dx":0.0017,"nx":28,"ny":28,"refTime":"2023-11-05T03:00:00:Z","depth":0,"parameterNumber":2,"parameterNumberName":"U-component_of_WINDS"},"data":[0,0,0,0,0,0,0,0,0,0,0,0,0,0,0,0,0,0,0,0,0,0,0,0,0,0,0,0,0,0,0,0,0,0,0,0,0,0,0,0,0,0,0,0,0,0,0,0,0,0,0,0,0,0,0,0,0,0,1.357,1.3571,0,1.3689,1.3691,1.3692,1.3708,1.3706,1.3705,1.3704,1.3827,1.3831,1.3836,0,0,0,0,0,0,0,0,0,0,0,0,0,1.3355,1.3359,1.357,1.3571,1.3573,1.3689,1.3691,1.3692,1.3708,1.3706,1.3705,1.3704,1.3826,1.3831,1.3836,0,0,0,0,0,0,0,0,0,0,0,0,0,1.3459,1.336,1.3569,1.3594,1.3598,1.3689,1.3691,1.3693,1.3708,1.3706,1.3705,1.3703,1.3824,1.383,1.3837,1.3911,0,0,1.3857,1.386,0,0,0,0,0,0,0,0,1.3453,1.3466,1.3589,1.3593,1.3597,1.3682,1.366,1.3766,1.3708,1.3666,1.3704,1.3702,1.378,1.379,1.3816,1.3917,1.3922,1.3857,1.3861,1.3864,1.3866,0,0,0,0,0,0,0,1.3446,1.3461,1.3617,1.3591,1.3596,1.36,1.3612,1.368,1.3731,1.367,1.3671,1.3685,1.3782,1.381,1.3819,1.3924,1.3857,1.3863,1.3867,1.387,1.4091,1.4092,0,0,0,0,0,0,1.3434,1.3455,1.3613,1.3621,1.3519,1.3605,1.3619,1.3656,1.3731,1.374,1.3686,1.3685,1.38,1.3812,1.3824,1.3914,1.3864,1.387,1.3874,1.4089,1.4091,1.4093,0,0,0,0,0,0,1.3429,1.3448,1.3608,1.3538,1.3559,1.361,1.3652,1.3659,1.3688,1.3743,1.3753,1.3706,1.3799,1.3815,1.3889,1.3919,1.3873,1.3879,1.4086,1.4089,1.4092,1.4097,0,0,0,0,0,0,1.3423,1.3446,1.3475,1.3539,1.3563,1.3671,1.3654,1.3663,1.3699,1.3698,1.3764,1.3773,1.3799,1.3879,1.3896,1.3927,1.3884,1.4084,1.4088,1.4091,1.4094,1.41,1.4104,0,0,0,0,0,1.3415,1.3472,1.3476,1.3495,1.36,1.3673,1.3687,1.3715,1.3701,1.373,1.3766,1.3771,1.3914,1.3887,1.3905,1.3939,1.4082,1.4087,1.4091,1.4092,1.4098,1.4104,0,0,0,0,0,0,1.341,1.348,1.3486,1.3565,1.3613,1.3676,1.3713,1.3721,1.3774,1.3772,1.3805,1.382,1.3892,1.3924,1.3893,1.4014,1.3996,1.4005,1.3991,1.3998,1.4003,1.3993,1.389,0,0,0,0,0,1.3418,1.3471,1.353,1.3594,1.3618,1.3662,1.3695,1.3712,1.3763,1.3784,1.3825,1.3874,1.393,1.3966,1.4021,1.41,1.4113,1.4132,1.4137,1.4141,1.4147,1.4189,1.4198,1.4108,1.4108,1.4108,0,0,1.3435,1.348,1.3512,1.3595,1.3634,1.3688,1.3678,1.3737,1.3777,1.3793,1.3864,1.3897,1.3954,1.403,1.4066,1.4059,1.4175,1.4146,1.4149,1.4153,1.4195,1.4203,1.4211,1.4111,1.411,1.411,0,0,1.3493,1.3533,1.359,1.363,1.3689,1.3717,1.3731,1.3793,1.3814,1.3887,1.3899,1.3949,1.4044,1.4084,1.4117,1.419,1.4196,1.4207,1.4232,1.4274,1.4281,1.4287,1.4311,1.432,1.4214,1.4214,1.4214,0,1.3506,1.3589,1.3619,1.3676,1.3711,1.3728,1.3785,1.3822,1.3896,1.392,1.3911,1.4031,1.4071,1.4156,1.4174,1.4201,1.4216,1.4199,1.4277,1.4284,1.429,1.4314,1.4323,1.4214,1.4214,1.4214,1.4214,0,1.3601,1.3658,1.3697,1.3767,1.3808,1.3865,1.3903,1.3941,1.3955,1.3984,1.4058,1.4107,1.4171,1.4193,1.4208,1.428,1.4273,1.427,1.4253,1.4299,1.4322,1.4331,1.4216,1.4215,1.4215,1.4215,0,0,1.3658,1.3744,1.3758,1.3789,1.3856,1.3901,1.3959,1.4021,1.4051,1.4102,1.4151,1.4231,1.4229,1.4266,1.4286,1.4322,1.4375,1.4315,1.4317,1.4323,1.4456,1.4456,1.4466,1.438,1.4382,1.4384,1.445,0,1.3722,1.3825,1.3854,1.3941,1.3993,1.401,1.406,1.4106,1.4136,1.4184,1.4217,1.4272,1.4266,1.4288,1.4325,1.4361,1.4402,1.4357,1.4425,1.4427,1.4408,1.4478,1.4479,1.4539,1.4459,1.4461,1.4462,0,1.3811,1.3862,1.3954,1.4013,1.4036,1.4081,1.4139,1.4186,1.4239,1.4258,1.4299,1.4316,1.4376,1.4357,1.444,1.4409,1.4439,1.446,1.4464,1.4469,1.4446,1.4483,1.4559,1.4567,1.4477,1.4476,1.4475,0,1.384,1.3933,1.3999,1.4026,1.4097,1.4128,1.4159,1.421,1.4246,1.4297,1.432,1.4379,1.4411,1.4455,1.4487,1.447,1.4567,1.4551,1.4584,1.4583,1.4602,1.46,1.4681,1.4625,1.4624,1.4624,1.4624,0,1.3907,1.3962,1.4013,1.4054,1.4116,1.4149,1.4209,1.4241,1.4287,1.4334,1.4353,1.4396,1.4437,1.4486,1.4512,1.4576,1.4591,1.4607,1.4612,1.4604,1.4601,1.4622,1.4618,1.4627,1.4626,1.4626,1.4625,0,1.3949,1.3986,1.4059,1.4121,1.4137,1.418,1.4233,1.4273,1.4303,1.4362,1.4378,1.4425,1.4484,1.4521,1.4596,1.4613,1.4683,1.4689,1.4665,1.4667,1.4697,1.4693,1.4792,1.4806,1.4743,1.4743,1.4744,0,1.3989,1.4031,1.4097,1.413,1.4161,1.4213,1.4249,1.4284,1.432,1.4383,1.4416,1.4476,1.4525,1.4618,1.4659,1.4717,1.4722,1.4753,1.4731,1.472,1.472,1.4716,1.472,1.4756,1.4757,1.4757,1.4757,0,1.4054,1.407,1.4121,1.4178,1.422,1.4267,1.4314,1.434,1.4382,1.4422,1.4482,1.452,1.4597,1.4656,1.4716,1.4749,1.476,1.4765,1.4775,1.4765,1.4749,1.4756,1.4672,1.4762,1.4761,1.4761,1.4761,1.476,1.4095,1.4132,1.4184,1.424,1.4279,1.4322,1.4362,1.4398,1.4448,1.4512,1.453,1.4592,1.4644,1.4727,1.476,1.4809,1.4805,1.482,1.4824,1.4827,1.4826,1.4743,1.4821,1.4821,1.4821,1.4821,1.4821,0,1.4159,1.4193,1.4244,1.4309,1.4352,1.436,1.4412,1.4448,1.4502,1.455,1.4598,1.4666,1.4724,1.4769,1.4828,1.4859,1.4865,1.4873,1.487,1.4877,1.4828,1.4812,1.4866,1.4866,1.4866,1.4866,1.4866,1.4866,1.4197,1.4261,1.4283,1.4367,1.4401,1.4462,1.4491,1.4531,1.4568,1.4644,1.4691,1.4721,1.4767,1.4829,1.4882,1.4894,1.4914,1.492,1.4933,1.4886,1.488,1.4876,1.4861,1.4925,1.4925,1.4978,1.4978,1.4979]},{"header":{"parameterUnit":"m.s-1","parameterCategory":1,"la1":30.2991,"la2":30.254,"lo1":-89.0895,"lo2":-89.0444,"dy":0.0017,"dx":0.0017,"nx":28,"ny":28,"refTime":"2023-11-05T03:00:00:Z","depth":0,"parameterNumber":3,"parameterNumberName":"V-component_of_WINDS"},"data":[0,0,0,0,0,0,0,0,0,0,0,0,0,0,0,0,0,0,0,0,0,0,0,0,0,0,0,0,0,0,0,0,0,0,0,0,0,0,0,0,0,0,0,0,0,0,0,0,0,0,0,0,0,0,0,0,0,0,2.5054,2.5053,0,2.4959,2.4958,2.4957,2.4892,2.4891,2.4891,2.4891,2.4788,2.4785,2.4783,0,0,0,0,0,0,0,0,0,0,0,0,0,2.5172,2.517,2.5054,2.5053,2.5051,2.4959,2.4958,2.4957,2.4892,2.4891,2.4891,2.489,2.4788,2.4786,2.4783,0,0,0,0,0,0,0,0,0,0,0,0,0,2.5103,2.517,2.5054,2.5008,2.5003,2.4959,2.4958,2.4956,2.4892,2.4891,2.4891,2.489,2.4789,2.4786,2.4783,2.4775,0,0,2.4772,2.477,0,0,0,0,0,0,0,0,2.5107,2.5099,2.5016,2.5011,2.5006,2.4937,2.4962,2.4895,2.4892,2.4934,2.4891,2.489,2.4837,2.483,2.4814,2.477,2.4766,2.4772,2.477,2.4768,2.4767,0,0,0,0,0,0,0,2.5112,2.5103,2.5016,2.5015,2.5009,2.499,2.498,2.4949,2.4891,2.493,2.4926,2.4916,2.4834,2.4817,2.4811,2.4764,2.4772,2.4769,2.4767,2.4765,2.4706,2.4707,0,0,0,0,0,0,2.5125,2.5107,2.5019,2.5013,2.5056,2.4989,2.4977,2.4959,2.4891,2.488,2.4916,2.4913,2.4823,2.4815,2.4807,2.4791,2.4768,2.4765,2.4763,2.4706,2.4706,2.4707,0,0,0,0,0,0,2.5128,2.5118,2.5023,2.5059,2.5045,2.4987,2.4968,2.4958,2.4941,2.488,2.4869,2.491,2.4822,2.4812,2.4783,2.4787,2.4763,2.476,2.4705,2.4706,2.4707,2.4761,0,0,0,0,0,0,2.5131,2.5119,2.5117,2.5059,2.5044,2.5003,2.4969,2.4957,2.4935,2.493,2.4871,2.486,2.4821,2.4789,2.478,2.4781,2.4757,2.4705,2.4706,2.4707,2.4759,2.4764,2.4768,0,0,0,0,0,2.5136,2.5136,2.5118,2.5107,2.5041,2.5004,2.4994,2.4951,2.4936,2.4932,2.4893,2.4862,2.4788,2.4786,2.4776,2.4776,2.4704,2.4705,2.4706,2.4757,2.4763,2.4768,0,0,0,0,0,0,2.5194,2.5127,2.5106,2.5088,2.5052,2.4993,2.4987,2.4959,2.4925,2.4921,2.4867,2.4854,2.483,2.48,2.48,2.4764,2.4742,2.4741,2.4784,2.4789,2.4794,2.48,2.4755,0,0,0,0,0,2.5205,2.5183,2.5125,2.5114,2.5097,2.5045,2.5028,2.4997,2.4957,2.4941,2.49,2.486,2.4827,2.4807,2.4774,2.4755,2.4739,2.475,2.4754,2.4758,2.4758,2.4742,2.4745,2.4711,2.4711,2.4711,0,0,2.5227,2.5188,2.5176,2.5124,2.5093,2.5068,2.5033,2.5009,2.4989,2.4936,2.4907,2.4875,2.4827,2.4803,2.479,2.4777,2.4764,2.476,2.4764,2.476,2.4744,2.4747,2.475,2.4712,2.4711,2.4711,0,0,2.5253,2.5223,2.5209,2.5179,2.5132,2.5098,2.5095,2.5039,2.5016,2.4987,2.4946,2.492,2.4866,2.4833,2.4809,2.4822,2.4791,2.4813,2.4836,2.4822,2.4824,2.4826,2.4829,2.483,2.4812,2.4813,2.4813,0,2.5286,2.5249,2.5205,2.5184,2.5161,2.5114,2.5098,2.507,2.5014,2.4998,2.4985,2.4915,2.488,2.4845,2.4849,2.4832,2.4824,2.4818,2.4828,2.483,2.4831,2.4832,2.4833,2.4815,2.4815,2.4815,2.4814,0,2.529,2.5265,2.5259,2.5208,2.5185,2.5166,2.5117,2.5098,2.507,2.5036,2.5004,2.496,2.4916,2.4906,2.4878,2.4867,2.486,2.4839,2.4815,2.4838,2.4838,2.4838,2.4819,2.4818,2.4818,2.4817,0,0,2.5349,2.5274,2.5273,2.5248,2.5193,2.5172,2.515,2.5109,2.5092,2.5055,2.5033,2.4988,2.4968,2.494,2.4908,2.4896,2.4905,2.4875,2.4873,2.488,2.4888,2.4903,2.4905,2.4885,2.4885,2.4885,2.4891,0,2.5365,2.5326,2.5285,2.5259,2.5234,2.5189,2.5169,2.5132,2.5099,2.5071,2.5034,2.5002,2.4979,2.4962,2.4948,2.4907,2.4906,2.4907,2.4862,2.4861,2.4873,2.4905,2.4921,2.4929,2.4891,2.4891,2.4891,0,2.5379,2.5345,2.5317,2.5263,2.5251,2.5235,2.5192,2.5167,2.5123,2.51,2.507,2.5035,2.5007,2.4988,2.4947,2.4948,2.4927,2.4904,2.4903,2.4896,2.4876,2.4896,2.493,2.4931,2.4891,2.4891,2.4891,0,2.5422,2.537,2.5346,2.5326,2.5263,2.5252,2.5225,2.518,2.5158,2.512,2.5104,2.5064,2.5041,2.5009,2.4963,2.4954,2.4925,2.4903,2.4903,2.4904,2.4897,2.4898,2.4926,2.4888,2.4888,2.4888,2.4887,0,2.5443,2.5427,2.5364,2.5349,2.5328,2.5281,2.5261,2.523,2.519,2.5166,2.5124,2.5102,2.5044,2.5014,2.4978,2.4948,2.4938,2.4916,2.4906,2.4919,2.4921,2.4903,2.4901,2.4888,2.4888,2.4888,2.4888,0,2.5487,2.5445,2.5415,2.5358,2.5343,2.533,2.528,2.5262,2.5228,2.5198,2.5188,2.5133,2.5095,2.5047,2.4993,2.4969,2.4942,2.4928,2.4957,2.4951,2.4952,2.4952,2.4968,2.4967,2.4932,2.4932,2.4933,0,2.5502,2.5489,2.5431,2.5413,2.5387,2.5359,2.5335,2.5288,2.5265,2.5213,2.5201,2.5161,2.5126,2.5067,2.502,2.4979,2.4962,2.4971,2.4955,2.4968,2.4959,2.496,2.4957,2.4974,2.4975,2.4975,2.4976,0,2.5532,2.5512,2.5482,2.5444,2.5418,2.5385,2.535,2.5337,2.5281,2.5257,2.522,2.5193,2.5139,2.5098,2.505,2.5019,2.4987,2.4981,2.4978,2.499,2.5007,2.4995,2.4965,2.498,2.498,2.498,2.4979,2.4979,2.556,2.5546,2.5503,2.5469,2.5439,2.5407,2.5387,2.535,2.5319,2.5273,2.5246,2.5208,2.5162,2.5095,2.5065,2.5033,2.5021,2.5018,2.5016,2.5016,2.5019,2.5014,2.5024,2.5024,2.5024,2.5024,2.5024,0,2.5586,2.5557,2.5527,2.548,2.5453,2.5429,2.5388,2.5367,2.5335,2.5296,2.5263,2.5218,2.5178,2.5129,2.5085,2.5069,2.5053,2.5059,2.5058,2.5051,2.5033,2.5039,2.5072,2.5072,2.5072,2.5072,2.5072,2.5072,2.5597,2.557,2.5545,2.5501,2.5471,2.5435,2.5414,2.5383,2.5352,2.5305,2.5272,2.5241,2.5197,2.515,2.5111,2.5097,2.5082,2.5092,2.5073,2.5057,2.5052,2.5048,2.5053,2.5089,2.5089,2.5093,2.5093,2.5093]}]]